User: anonymous   Login
Location: Unspecified
(0.0000°N, 0.0000°E)
Time: 09:30:39
(UTC+00:00)
Language:

ISIS 1 - Orbit

View from above orbital plane
View from above orbital plane
View from above satellite
View from above satellite

Ground track
Ground track

The orbit data is extracted from the following two-line orbital elements,

1  3669U 69009A   19345.78675760  .00000063  00000-0  37624-4 0  9991
2  3669  88.4323  47.4332 1712132   7.0273 355.1765 11.29475778 91422
Epoch (UTC): 11 December 2019 18:52:55
Eccentricity: 0.1712132
inclination: 88.4323°
perigee height: 576 km
apogee height: 3449 km
right ascension of ascending node: 47.4332°
argument of perigee: 7.0273°
revolutions per day: 11.29475778
mean anomaly at epoch: 355.1765°
orbit number at epoch: 9142

The dashed part of the orbit path shows where the satellite is in the earth's shadow,  

DLR